�N����,����,�~����,�C��,���x,�C��,����,���ϕ���,�ő�u�ԕ���,�ő厞����,���˗�,�I�_���x,�n�����x,�ő啗���N��,DTYPE
"18/05/11","00:10",0.0,7.9,89.9,1015.6,326.7,2.1,3.3,339.3,0.00,6.4,14.7,"00:07:16",1
"18/05/11","00:20",0.0,8.2,90.1,1015.6,337.3,2.0,3.2,356.7,0.00,6.7,14.7,"00:17:44",1
"18/05/11","00:30",0.0,8.1,89.6,1015.4,332.9,2.1,3.6,332.5,0.00,6.5,14.3,"00:28:00",1
"18/05/11","00:40",0.0,8.0,88.9,1015.6,329.3,2.0,4.4,340.2,0.00,6.3,14.6,"00:30:24",1
"18/05/11","00:50",0.0,7.9,88.1,1015.9,331.4,2.2,3.4,334.0,0.00,6.1,14.5,"00:43:28",1
"18/05/11","01:00",0.0,7.9,88.2,1015.9,332.5,2.5,4.0,343.7,0.00,6.1,14.5,"00:58:48",1
"18/05/11","01:10",0.0,7.9,87.1,1015.6,325.6,2.1,3.5,318.4,0.00,5.9,14.3,"01:01:20",1
"18/05/11","01:20",0.0,7.5,87.4,1015.9,300.9,1.6,2.4,296.8,0.00,5.6,14.2,"01:15:36",1
"18/05/11","01:30",0.0,7.1,88.3,1015.6,284.3,1.5,2.4,304.7,0.00,5.3,14.2,"01:28:16",1
"18/05/11","01:40",0.0,6.9,89.3,1015.6,294.2,1.6,2.6,315.0,0.00,5.3,14.4,"01:30:56",1
"18/05/11","01:50",0.0,6.8,89.7,1015.2,292.0,1.5,1.9,308.8,0.00,5.3,14.2,"01:40:56",1
"18/05/11","02:00",0.0,6.7,90.7,1015.4,309.4,1.7,2.5,327.5,0.00,5.3,14.0,"01:54:10",1
"18/05/11","02:10",0.0,6.4,90.5,1015.4,296.1,1.6,2.1,314.0,0.00,5.0,14.0,"02:00:08",1
"18/05/11","02:20",0.0,6.2,91.6,1015.4,289.1,1.7,2.1,301.2,0.00,5.0,13.9,"02:18:42",1
"18/05/11","02:30",0.0,6.0,91.3,1015.4,303.3,2.0,2.5,319.8,0.00,4.7,14.0,"02:27:20",1
"18/05/11","02:40",0.0,6.0,93.2,1014.9,304.2,2.2,2.7,307.9,0.00,5.0,13.8,"02:39:02",1
"18/05/11","02:50",0.0,6.0,92.8,1015.2,289.7,1.8,2.6,320.2,0.00,5.0,13.7,"02:46:24",1
"18/05/11","03:00",0.0,6.1,93.6,1015.2,285.3,1.8,2.1,295.7,0.00,5.2,13.9,"02:50:16",1
"18/05/11","03:10",0.0,6.2,93.3,1014.7,284.5,2.0,2.4,287.7,0.00,5.2,13.5,"03:05:58",1
"18/05/11","03:20",0.0,6.3,93.2,1014.9,295.3,1.8,2.2,311.5,0.00,5.3,13.7,"03:11:12",1
"18/05/11","03:30",0.0,6.0,92.8,1014.7,303.1,1.7,2.4,310.9,0.00,5.0,13.6,"03:27:28",1
"18/05/11","03:40",0.0,5.5,92.5,1014.9,303.2,1.6,2.4,314.4,0.00,4.4,13.7,"03:30:42",1
"18/05/11","03:50",0.0,5.4,94.1,1015.2,311.2,1.7,2.6,317.0,0.00,4.6,13.2,"03:47:32",1
"18/05/11","04:00",0.0,5.5,95.1,1014.9,316.2,2.0,2.4,311.5,0.00,4.8,13.3,"03:51:46",1
"18/05/11","04:10",0.0,5.4,94.2,1014.9,301.5,1.7,2.4,317.0,0.00,4.6,13.2,"04:02:12",1
"18/05/11","04:20",0.0,5.3,94.7,1014.9,306.4,1.6,2.5,317.0,0.00,4.6,13.2,"04:17:46",1
"18/05/11","04:30",0.0,5.2,95.0,1015.2,308.2,1.7,2.1,304.9,0.00,4.5,13.4,"04:28:40",1
"18/05/11","04:40",0.0,5.5,95.6,1015.2,311.0,1.8,3.2,329.9,0.00,4.9,13.3,"04:35:28",1
"18/05/11","04:50",0.0,5.6,95.1,1015.4,292.3,1.8,3.3,313.1,0.00,4.9,13.2,"04:41:20",1
"18/05/11","05:00",0.0,5.7,95.5,1015.2,286.7,1.7,2.5,304.7,0.00,5.1,13.0,"04:58:58",1
"18/05/11","05:10",0.0,5.7,94.9,1015.4,318.9,2.1,3.1,319.6,0.00,5.0,13.1,"05:04:52",1
"18/05/11","05:20",0.0,5.3,94.2,1015.6,310.6,1.6,2.2,333.9,0.00,4.5,13.0,"05:10:24",1
"18/05/11","05:30",0.0,5.3,95.5,1015.6,289.8,1.2,2.0,314.0,0.00,4.7,13.1,"05:21:52",1
"18/05/11","05:40",0.0,5.4,95.8,1015.6,307.4,1.3,2.2,318.3,0.00,4.8,12.9,"05:39:20",1
"18/05/11","05:50",0.0,5.6,96.3,1015.4,305.8,2.0,2.9,322.9,0.00,5.1,12.9,"05:43:04",1
"18/05/11","06:00",0.0,6.0,96.9,1015.4,289.8,1.6,1.9,286.8,0.00,5.6,12.8,"05:57:20",1
"18/05/11","06:10",0.0,6.5,96.5,1015.6,292.7,1.3,1.8,261.6,0.01,6.0,12.9,"06:01:28",1
"18/05/11","06:20",0.0,6.8,96.2,1015.9,305.1,1.7,2.6,316.2,0.02,6.3,12.7,"06:13:28",1
"18/05/11","06:30",0.0,7.5,95.8,1016.1,307.8,1.7,2.2,315.1,0.03,6.9,12.8,"06:20:16",1
"18/05/11","06:40",0.0,8.3,94.2,1016.1,319.6,1.3,2.2,322.5,0.04,7.5,12.9,"06:34:00",1
"18/05/11","06:50",0.0,8.7,93.6,1016.4,331.1,1.3,2.4,330.6,0.05,7.8,13.0,"06:42:24",1
"18/05/11","07:00",0.0,9.8,87.9,1016.6,318.3,0.8,1.9,330.4,0.09,7.9,12.7,"06:54:08",1
"18/05/11","07:10",0.0,10.5,83.1,1016.6,281.5,0.8,1.6,319.9,0.12,7.8,13.0,"07:03:52",1
"18/05/11","07:20",0.0,11.3,80.9,1017.1,323.7,1.1,2.0,313.5,0.15,8.2,13.1,"07:15:28",1
"18/05/11","07:30",0.0,11.6,80.2,1017.5,279.6,0.5,1.1,315.8,0.18,8.3,13.2,"07:20:08",1
"18/05/11","07:40",0.0,12.4,77.2,1017.8,332.7,0.5,1.2,332.5,0.20,8.6,13.3,"07:32:40",1
"18/05/11","07:50",0.0,12.5,75.6,1017.5,140.9,0.3,0.9,150.0,0.22,8.4,13.3,"07:44:24",1
"18/05/11","08:00",0.0,13.0,72.6,1017.5,276.5,0.6,1.0,216.4,0.25,8.2,13.5,"07:55:54",1
"18/05/11","08:10",0.0,13.6,69.6,1017.3,263.7,0.5,1.2,226.0,0.28,8.2,13.7,"08:06:42",1
"18/05/11","08:20",0.0,14.1,67.6,1017.1,215.8,0.6,1.6,220.0,0.31,8.2,14.0,"08:10:16",1
"18/05/11","08:30",0.0,14.7,65.4,1016.8,269.0,0.7,1.7,232.4,0.33,8.3,14.1,"08:24:14",1
"18/05/11","08:40",0.0,14.8,62.8,1016.6,224.7,0.7,1.8,129.2,0.36,7.8,14.1,"08:30:56",1
"18/05/11","08:50",0.0,15.4,63.6,1016.4,196.8,0.8,2.0,157.2,0.38,8.6,14.5,"08:42:56",1
"18/05/11","09:00",0.0,16.0,63.3,1016.4,230.3,0.6,2.1,197.3,0.38,9.1,14.7,"08:54:00",1
"18/05/11","09:10",0.0,16.4,61.1,1016.4,140.3,0.7,1.9,188.8,0.40,8.9,15.0,"09:09:44",1
"18/05/11","09:20",0.0,16.3,58.1,1016.1,131.2,1.0,2.5,159.2,0.42,8.1,15.1,"09:10:24",1
"18/05/11","09:30",0.0,16.7,57.7,1015.9,141.2,1.0,2.2,161.9,0.46,8.4,15.4,"09:22:08",1
"18/05/11","09:40",0.0,17.4,59.0,1015.6,109.3,0.7,2.4,66.3,0.48,9.4,15.7,"09:34:16",1
"18/05/11","09:50",0.0,17.6,56.9,1015.6,89.1,0.8,2.4,164.4,0.49,9.0,15.8,"09:46:08",1
"18/05/11","10:00",0.0,17.9,57.6,1015.4,155.8,1.3,2.9,160.3,0.51,9.5,16.1,"09:56:56",1
"18/05/11","10:10",0.0,18.5,54.9,1015.2,94.4,0.8,2.8,138.5,0.53,9.3,16.6,"10:06:48",1
"18/05/11","10:20",0.0,18.2,52.2,1015.2,108.5,1.1,2.8,140.1,0.54,8.3,16.7,"10:11:04",1
"18/05/11","10:30",0.0,19.3,49.1,1014.9,134.8,0.7,1.6,119.1,0.56,8.4,16.8,"10:20:48",1
"18/05/11","10:40",0.0,19.4,51.8,1014.9,205.0,1.5,2.7,187.6,0.57,9.3,17.2,"10:32:08",1
"18/05/11","10:50",0.0,19.6,51.2,1014.2,206.3,1.2,2.4,231.7,0.58,9.3,17.5,"10:44:48",1
"18/05/11","11:00",0.0,19.5,49.7,1014.5,240.4,1.0,2.1,303.6,0.58,8.8,18.0,"10:54:08",1
"18/05/11","11:10",0.0,20.2,49.1,1014.0,174.9,1.3,3.2,121.9,0.58,9.2,18.0,"11:04:48",1
"18/05/11","11:20",0.0,20.1,50.5,1013.8,125.1,1.5,3.2,132.4,0.60,9.6,18.2,"11:13:44",1
"18/05/11","11:30",0.0,20.5,50.3,1014.2,155.7,1.7,3.5,162.3,0.60,9.9,18.5,"11:26:24",1
"18/05/11","11:40",0.0,21.1,51.0,1013.8,194.0,1.7,3.5,177.7,0.61,10.6,18.8,"11:35:36",1
"18/05/11","11:50",0.0,20.3,45.3,1013.8,193.8,2.0,3.5,182.1,0.62,8.1,19.1,"11:47:20",1
"18/05/11","12:00",0.0,21.3,46.4,1013.5,166.8,1.5,3.4,143.2,0.62,9.4,19.2,"11:54:08",1
"18/05/11","12:10",0.0,21.5,46.5,1013.0,119.5,1.3,3.6,124.5,0.62,9.6,19.3,"12:01:52",1
"18/05/11","12:20",0.0,22.1,44.9,1012.6,146.6,1.1,2.6,182.2,0.62,9.6,19.6,"12:16:08",1
"18/05/11","12:30",0.0,22.4,44.0,1012.1,177.0,1.1,2.5,172.8,0.62,9.6,19.9,"12:28:00",1
"18/05/11","12:40",0.0,22.1,45.0,1012.1,171.7,1.6,3.4,163.4,0.60,9.7,20.1,"12:35:52",1
"18/05/11","12:50",0.0,22.7,41.9,1011.9,135.1,1.6,4.0,175.3,0.60,9.1,20.2,"12:42:00",1
"18/05/11","13:00",0.0,23.0,39.8,1011.6,59.4,1.2,2.8,6.6,0.60,8.7,20.3,"12:54:40",1
"18/05/11","13:10",0.0,22.9,38.6,1011.2,185.8,1.7,3.9,226.8,0.59,8.1,20.3,"13:03:52",1
"18/05/11","13:20",0.0,23.1,40.3,1010.9,151.4,1.2,3.2,140.8,0.60,8.9,20.5,"13:16:24",1
"18/05/11","13:30",0.0,23.4,34.8,1010.7,151.2,0.8,2.6,142.2,0.59,7.0,20.5,"13:26:32",1
"18/05/11","13:40",0.0,23.7,37.3,1010.7,124.7,1.5,3.6,144.1,0.56,8.3,20.3,"13:35:12",1
"18/05/11","13:50",0.0,23.9,33.7,1010.4,154.7,1.5,3.2,140.4,0.54,7.0,20.3,"13:46:16",1
"18/05/11","14:00",0.0,24.7,36.0,1010.4,192.1,1.2,3.1,131.0,0.53,8.7,20.3,"13:59:44",1
"18/05/11","14:10",0.0,24.0,34.9,1010.4,140.6,2.1,3.4,164.8,0.54,7.6,20.6,"14:05:44",1
"18/05/11","14:20",0.0,24.7,32.8,1010.2,142.4,1.3,3.3,176.1,0.53,7.3,20.4,"14:10:24",1
"18/05/11","14:30",0.0,24.6,31.9,1010.2,181.4,2.1,5.5,156.6,0.48,6.8,20.8,"14:24:32",1
"18/05/11","14:40",0.0,24.8,30.7,1009.7,175.3,2.1,3.9,201.1,0.46,6.4,20.7,"14:32:00",1
"18/05/11","14:50",0.0,24.8,31.3,1009.7,137.9,1.6,3.2,173.6,0.43,6.7,21.0,"14:40:56",1
"18/05/11","15:00",0.0,24.6,30.0,1009.3,177.5,2.3,5.0,159.9,0.44,5.9,20.8,"14:53:52",1
"18/05/11","15:10",0.0,25.1,32.7,1009.3,175.5,2.6,5.0,182.2,0.43,7.6,21.0,"15:05:44",1
"18/05/11","15:20",0.0,25.1,31.9,1009.3,182.2,2.1,5.1,192.7,0.41,7.3,21.1,"15:11:52",1
"18/05/11","15:30",0.0,25.1,33.5,1009.5,188.6,2.5,4.1,180.3,0.37,8.0,21.0,"15:25:04",1
"18/05/11","15:40",0.0,25.1,29.9,1009.7,234.1,2.2,5.2,225.3,0.36,6.3,21.2,"15:31:44",1
"18/05/11","15:50",0.0,25.2,31.9,1009.5,228.5,2.2,5.5,232.4,0.31,7.3,21.0,"15:40:08",1
"18/05/11","16:00",0.0,25.7,33.7,1009.3,239.9,1.1,2.6,299.9,0.29,8.6,21.0,"15:54:24",1
"18/05/11","16:10",0.0,25.3,33.9,1009.3,207.4,1.8,4.9,223.3,0.29,8.3,21.1,"16:04:40",1
"18/05/11","16:20",0.0,24.8,33.9,1009.5,184.0,2.6,4.9,130.8,0.25,7.9,21.0,"16:17:44",1
"18/05/11","16:30",0.0,24.6,32.8,1009.5,242.7,2.3,5.0,232.1,0.20,7.2,21.0,"16:24:48",1
"18/05/11","16:40",0.0,24.5,30.6,1009.5,230.4,2.2,3.9,224.7,0.19,6.1,21.0,"16:39:04",1
"18/05/11","16:50",0.0,24.2,23.3,1009.5,217.4,3.1,4.9,228.1,0.20,2.0,21.0,"16:46:48",1
"18/05/11","17:00",0.0,23.9,21.7,1009.5,222.2,2.6,5.0,217.0,0.16,0.8,21.0,"16:53:44",1
"18/05/11","17:10",0.0,23.7,23.8,1009.7,230.8,2.5,4.7,232.7,0.12,1.9,20.7,"17:03:04",1
"18/05/11","17:20",0.0,23.6,25.1,1009.5,237.5,1.6,3.4,241.6,0.10,2.5,20.9,"17:11:04",1
"18/05/11","17:30",0.0,23.7,26.3,1010.0,245.5,1.6,3.6,236.3,0.09,3.3,20.5,"17:21:52",1
"18/05/11","17:40",0.0,23.2,25.0,1009.5,259.6,1.5,3.4,218.9,0.04,2.1,20.5,"17:37:52",1
"18/05/11","17:50",0.0,22.7,26.9,1009.5,266.6,1.1,2.4,249.0,0.03,2.7,20.5,"17:40:08",1
"18/05/11","18:00",0.0,22.0,30.0,1009.7,241.5,1.1,2.6,222.7,0.02,3.7,20.3,"17:54:56",1
"18/05/11","18:10",0.0,21.4,31.7,1010.0,234.1,1.3,3.2,225.0,0.02,3.9,20.2,"18:05:04",1
"18/05/11","18:20",0.0,21.4,30.7,1010.0,240.8,1.3,2.8,230.9,0.01,3.5,19.9,"18:19:04",1
"18/05/11","18:30",0.0,20.8,35.5,1010.2,269.2,1.5,3.7,226.1,0.01,5.0,19.9,"18:20:08",1
"18/05/11","18:40",0.0,20.0,44.9,1010.4,320.1,1.1,2.0,340.9,0.00,7.7,19.7,"18:38:16",1
"18/05/11","18:50",0.0,18.8,48.6,1010.2,338.8,1.0,1.4,333.6,0.00,7.8,19.8,"18:45:44",1
"18/05/11","19:00",0.0,17.8,50.3,1010.9,301.9,1.0,1.4,330.5,0.00,7.4,19.5,"18:58:56",1
"18/05/11","19:10",0.0,16.9,53.0,1010.9,294.4,0.6,1.0,332.7,0.00,7.3,19.3,"19:00:24",1
"18/05/11","19:20",0.0,16.4,57.5,1011.2,330.0,1.1,1.8,320.6,0.00,8.0,19.2,"19:16:00",1
"18/05/11","19:30",0.0,15.8,59.4,1011.2,327.7,1.5,2.0,330.4,0.00,8.0,18.8,"19:27:36",1
"18/05/11","19:40",0.0,15.5,61.4,1011.4,43.8,0.3,1.3,354.6,0.00,8.2,18.9,"19:30:24",1
"18/05/11","19:50",0.0,15.4,59.9,1011.6,289.6,1.1,1.8,298.5,0.00,7.7,18.7,"19:48:24",1
"18/05/11","20:00",0.0,15.3,59.7,1011.6,304.3,1.2,2.6,341.4,0.00,7.6,18.4,"19:58:48",1
"18/05/11","20:10",0.0,15.0,59.7,1012.1,296.4,1.2,2.7,336.9,0.00,7.3,18.3,"20:00:56",1
"18/05/11","20:20",0.0,14.6,62.1,1011.9,317.0,1.2,2.1,328.8,0.00,7.5,18.2,"20:13:44",1
"18/05/11","20:30",0.0,14.3,64.4,1012.1,293.6,1.1,1.7,321.5,0.00,7.7,17.8,"20:25:04",1
"18/05/11","20:40",0.0,14.0,64.9,1011.9,299.1,1.2,1.9,319.7,0.00,7.5,17.9,"20:35:36",1
"18/05/11","20:50",0.0,13.8,65.9,1012.6,286.2,1.1,1.7,330.6,0.00,7.6,17.7,"20:44:00",1
"18/05/11","21:00",0.0,13.8,66.2,1012.8,304.9,1.5,2.8,315.5,0.00,7.6,17.5,"20:55:10",1
"18/05/11","21:10",0.0,13.8,67.0,1012.6,315.8,1.7,2.6,311.4,0.00,7.8,17.5,"21:09:40",1
"18/05/11","21:20",0.0,13.6,66.7,1012.8,308.2,1.3,2.4,327.3,0.00,7.6,17.4,"21:17:20",1
"18/05/11","21:30",0.0,13.4,67.5,1012.8,305.1,1.6,2.4,335.6,0.00,7.6,17.4,"21:27:46",1
"18/05/11","21:40",0.0,13.2,67.8,1012.8,310.6,1.6,2.4,295.8,0.00,7.4,17.2,"21:32:34",1
"18/05/11","21:50",0.0,13.1,68.5,1013.0,303.8,1.7,2.8,341.0,0.00,7.5,17.1,"21:41:54",1
"18/05/11","22:00",0.0,12.9,69.2,1013.0,295.8,1.6,2.2,308.7,0.00,7.4,17.1,"21:59:48",1
"18/05/11","22:10",0.0,13.0,70.2,1013.3,313.0,2.1,3.2,320.2,0.00,7.7,17.0,"22:09:58",1
"18/05/11","22:20",0.0,13.0,70.4,1012.8,318.0,1.7,2.8,320.5,0.00,7.8,16.7,"22:10:20",1
"18/05/11","22:30",0.0,12.7,72.0,1013.0,315.9,1.1,1.9,341.0,0.00,7.8,16.6,"22:21:26",1
"18/05/11","22:40",0.0,12.3,73.7,1012.8,299.4,0.7,1.2,337.7,0.00,7.8,16.4,"22:31:34",1
"18/05/11","22:50",0.0,11.8,76.9,1013.0,299.9,1.1,2.0,325.8,0.00,7.9,16.4,"22:44:08",1
"18/05/11","23:00",0.0,11.7,79.5,1013.0,315.1,1.2,2.0,308.5,0.00,8.3,16.4,"22:52:22",1
"18/05/11","23:10",0.0,12.3,81.0,1013.0,317.4,2.0,2.9,320.5,0.00,9.2,16.3,"23:03:56",1
"18/05/11","23:20",0.0,12.5,79.9,1013.0,312.4,1.6,2.9,325.1,0.00,9.2,16.2,"23:10:40",1
"18/05/11","23:30",0.0,12.4,80.2,1013.3,329.1,1.1,1.9,351.6,0.00,9.1,16.1,"23:21:16",1
"18/05/11","23:40",0.0,12.3,80.6,1013.3,315.3,1.6,2.5,319.9,0.00,9.1,16.3,"23:31:28",1
"18/05/11","23:50",0.0,12.1,80.9,1013.0,305.0,1.5,2.2,335.8,0.00,9.0,16.0,"23:43:24",1
"18/05/11","24:00",0.0,12.0,81.2,1013.3,317.5,1.6,2.2,336.3,0.00,8.9,16.1,"23:55:38",1
